{"data":{"norad_id":68509,"intl_designator":"2026-068B","name":"STARLINK-36292","alt_names":[],"object_type":"PAYLOAD","status":"ACTIVE","operator":null,"country":"US","launch_date":"2026-03-30","launch_site_code":"AFETR","launch_vehicle":null,"mission":null,"orbit_class":"UNKNOWN","rcs_meters":null,"size_class":null,"mass_kg":null,"dimensions":null,"purposes":["comms"],"wikipedia_slug":null,"has_3d_model":false,"image_url":null,"decayed_at":null,"tle_current":{"epoch":"2026-05-25T05:24:41.832288Z","epoch_age_seconds":62526,"freshness":"FRESH","line1":"1 68509U 26068B   26145.22548417  .00023005  00000+0  68992-3 0  9997","line2":"2 68509  53.1610 132.2907 0000550  41.5844 318.5201 15.34399271  8682","mean_motion":15.34399271,"eccentricity":5.5e-5,"inclination_deg":53.161,"raan_deg":132.2907,"arg_perigee_deg":41.5844,"mean_anomaly_deg":318.5201,"bstar":0.00068992,"rev_number":868,"period_min":93.847802668827,"perigee_km":462.32916061721,"apogee_km":463.08165328197,"semimajor_km":6840.8424069496,"source":"CELESTRAK","updated_at":"2026-05-25T13:38:21.952336Z"}}}